This is the latest recevied weather packets stored in our database for station/object N9EA. If no packets are shown the sender has not sent any weather packets the latest 10 day(s).
| Time | Temp. | Humidity | Pressure | Rain* | Wind** | Luminosity | Snow |
|---|---|---|---|---|---|---|---|
| 1777813419 | 10° C | 62% | 1013 hPa | 0 mm | - | 37 W/m² | - |
| 1777813116 | 10° C | 62% | 1013 hPa | 0 mm | - | 59 W/m² | - |
| 1777812814 | 10° C | 61% | 1012.9 hPa | 0 mm | - | 42 W/m² | - |
| 1777812511 | 10° C | 60% | 1013.1 hPa | 0 mm | - | 28 W/m² | - |
| 1777812208 | 10° C | 58% | 1013 hPa | 0 mm | - | 26 W/m² | - |
| 1777811906 | 10° C | 58% | 1012.7 hPa | 0 mm | - | 28 W/m² | - |
| 1777811605 | 10° C | 58% | 1012.9 hPa | 0 mm | - | 17 W/m² | - |
| 1777811300 | 10° C | 58% | 1013.1 hPa | 0 mm | - | 21 W/m² | - |
| 1777810997 | 10° C | 58% | 1013.1 hPa | 0 mm | - | 19 W/m² | - |
| 1777810694 | 10° C | 58% | 1013.1 hPa | 0 mm | - | 23 W/m² | - |
| 1777810391 | 10° C | 57% | 1013.2 hPa | 0 mm | - | 9 W/m² | - |
| 1777810087 | 10.56° C | 57% | 1013 hPa | 0 mm | - | 7 W/m² | - |
| 1777809784 | 10.56° C | 57% | 1013.3 hPa | 0 mm | - | 6 W/m² | - |
| 1777809482 | 10.56° C | 56% | 1013.2 hPa | 0 mm | - | 9 W/m² | - |
| 1777809180 | 10° C | 56% | 1013.3 hPa | 0 mm | - | 11 W/m² | - |
| 1777808877 | 10.56° C | 57% | 1013.5 hPa | 0 mm | - | 6 W/m² | - |
| 1777808573 | 10.56° C | 56% | 1013.5 hPa | 0 mm | - | 4 W/m² | - |
| 1777808270 | 10.56° C | 56% | 1013.5 hPa | 0 mm | - | 6 W/m² | - |
| 1777807964 | 10.56° C | 55% | 1013.2 hPa | 0 mm | - | 12 W/m² | - |
| 1777807661 | 10.56° C | 55% | 1013 hPa | 0 mm | - | 10 W/m² | - |
| 1777807358 | 10.56° C | 55% | 1013 hPa | 0 mm | - | 6 W/m² | - |
| 1777807053 | 10.56° C | 54% | 1012.7 hPa | 0 mm | - | 5 W/m² | - |
| 1777806750 | 10.56° C | 54% | 1013 hPa | 0 mm | - | 4 W/m² | - |
| 1777806441 | 10.56° C | 55% | 1012.9 hPa | 0 mm | - | 3 W/m² | - |
| 1777806138 | 10.56° C | 55% | 1013.2 hPa | 0 mm | - | 2 W/m² | - |
* Rain latest hour (hover to see other rain measurements)
** Current wind speed in m/s (hover to see current wind gust speed)